Location: *
(40.7765°S, 106.5327°E)
Time: 14:49:35
(UTC+00:00)

Cosmos 1153 Rocket - Pass Details

Date: 26 May 2022
Orbit: 954 x 1005 km, 82.9° (Epoch: 05 July)

Event Time Altitude Azimuth Distance (km) Brightness Sun altitude
Rises 10:05:16 0° 185° (S) 3,698 7.3 -5.5°
Reaches altitude 10° 10:07:50 10° 182° (S) 2,738 6.7 -6.0°
Maximum altitude 10:14:04 66° 99° (E) 1,056 4.5 -7.0°
Drops below altitude 10° 10:20:10 10° 17° (NNE) 2,685 6.9 -8.1°
Sets 10:22:40 0° 14° (NNE) 3,621 7.6 -8.6°
